WXM80 ListenWXM80 Stop

You find our weather info also at:

UK Metoffice

WeatherCloud

Weather Underground

Northeastern Weather Network

AWEKAS

Citizen Weather Observer Program (CWOP)

HAMweather, WeatherForYou, PWS Weather


Weather Underground History page Text

Daily Summary for August 6, 2017 Units:  Metric    English   Both
« Previous Day
Next Day »
Daily Weekly Monthly Yearly Custom
  High: Low: Average:
Temperature: 25.7 °C 18.4 °C 21.6 °C
Dew Point: 16.2 °C 13.4 °C 14.5 °C
Humidity: 76 % 49 % 65 %
Wind Speed: 12.7 km/h 0 km/h 3.9 km/h
Wind Gust: 24.1 km/h - -
Wind:- - West
Pressure: 1018.2 hPa 1012.8 hPa -
Precipitation: 0.25 mm    
Historical Graphs
 
 
Tabular Data for August 6, 2017
Time Temperature Dew Point Pressure Wind Wind Speed Wind Gust Humidity Rainfall Rate (Hourly)
00:00 21.2 °C 14.6 °C 1013.1 hPa West 3.4 km/h 7.4 km/h 66 % 0 mm
00:05 21.1 °C 14.5 °C 1013.1 hPa WNW 4.2 km/h 11.1 km/h 66 % 0 mm
00:10 21.1 °C 14.4 °C 1013.1 hPa NW 7.2 km/h 11.3 km/h 66 % 0 mm
00:15 21 °C 14.4 °C 1013.1 hPa SW 6.6 km/h 11.3 km/h 66 % 0 mm
00:20 20.9 °C 14.3 °C 1013.1 hPa West 5 km/h 12.9 km/h 66 % 0 mm
00:25 20.9 °C 14.3 °C 1013.1 hPa WNW 2.4 km/h 14.8 km/h 66 % 0 mm
00:30 20.9 °C 14.3 °C 1012.8 hPa WNW 5.8 km/h 13 km/h 66 % 0 mm
00:35 20.9 °C 14.6 °C 1013.1 hPa NW 2.1 km/h 5.6 km/h 67 % 0 mm
00:40 20.9 °C 14.8 °C 1012.8 hPa WSW 7.2 km/h 14.8 km/h 68 % 0 mm
00:45 20.9 °C 14.8 °C 1012.8 hPa NW 3.5 km/h 11.1 km/h 68 % 0 mm
00:50 20.8 °C 14.5 °C 1013.1 hPa West 5.6 km/h 13 km/h 67 % 0 mm
00:55 20.8 °C 14.7 °C 1012.8 hPa WNW 5.3 km/h 9.3 km/h 68 % 0 mm
01:00 20.8 °C 14.7 °C 1013.1 hPa WNW 7.1 km/h 16.7 km/h 68 % 0 mm
01:05 20.7 °C 14.6 °C 1012.8 hPa NW 6 km/h 8 km/h 68 % 0 mm
01:10 20.7 °C 14.6 °C 1012.8 hPa West 6 km/h 13 km/h 68 % 0 mm
01:15 20.7 °C 14.6 °C 1013.1 hPa North 8.2 km/h 13 km/h 68 % 0 mm
01:20 20.6 °C 14.5 °C 1012.8 hPa NW 6.4 km/h 12.9 km/h 68 % 0 mm
01:25 20.6 °C 14.5 °C 1013.1 hPa NW 4.7 km/h 16.7 km/h 68 % 0 mm
01:30 20.6 °C 14.4 °C 1012.8 hPa West 8.9 km/h 18.5 km/h 68 % 0 mm
01:35 20.6 °C 14.4 °C 1012.8 hPa WNW 4 km/h 11.1 km/h 68 % 0 mm
01:40 20.5 °C 14.4 °C 1012.8 hPa WNW 4.8 km/h 11.1 km/h 68 % 0 mm
01:45 20.5 °C 14.6 °C 1013.1 hPa West 1.3 km/h 6.4 km/h 69 % 0 mm
01:50 20.4 °C 14.6 °C 1013.1 hPa WNW 5.5 km/h 11.1 km/h 69 % 0 mm
01:55 20.4 °C 14.5 °C 1013.1 hPa West 2.4 km/h 13 km/h 69 % 0 mm
02:00 20.3 °C 14.4 °C 1013.1 hPa West 1.9 km/h 5.6 km/h 69 % 0 mm
02:05 20.3 °C 14.4 °C 1013.1 hPa WNW 8.2 km/h 18.5 km/h 69 % 0 mm
02:10 20.2 °C 14.6 °C 1013.1 hPa West 5.6 km/h 14.8 km/h 70 % 0 mm
02:15 20.2 °C 14.3 °C 1013.1 hPa West 8.5 km/h 16.7 km/h 69 % 0 mm
02:20 20.2 °C 14.5 °C 1013.1 hPa WNW 1.6 km/h 5.6 km/h 70 % 0 mm
02:25 20.1 °C 14.4 °C 1013.1 hPa West 5.8 km/h 16.7 km/h 70 % 0 mm
02:30 20.1 °C 14.4 °C 1013.1 hPa West 1.8 km/h 16.7 km/h 70 % 0 mm
02:40 20 °C 14.3 °C 1013.1 hPa WNW 2.3 km/h 7.4 km/h 70 % 0 mm
02:46 20 °C 14.6 °C 1013.1 hPa West 1.6 km/h 12.9 km/h 71 % 0 mm
02:51 19.9 °C 14.5 °C 1013.1 hPa West 3.2 km/h 8 km/h 71 % 0 mm
02:56 19.8 °C 14.4 °C 1013.1 hPa WSW 3.2 km/h 16.1 km/h 71 % 0 mm
03:01 19.8 °C 14.4 °C 1013.1 hPa WNW 3.2 km/h 14.8 km/h 71 % 0 mm
03:06 19.8 °C 14.4 °C 1013.1 hPa WNW 7.9 km/h 16.7 km/h 71 % 0 mm
03:11 19.7 °C 14.3 °C 1013.1 hPa WSW 7.2 km/h 14.8 km/h 71 % 0 mm
03:16 19.7 °C 14.3 °C 1013.1 hPa WNW 4.5 km/h 14.8 km/h 71 % 0 mm
03:21 19.6 °C 14 °C 1013.1 hPa WNW 4.8 km/h 13 km/h 70 % 0 mm
03:26 19.6 °C 14 °C 1013.1 hPa West 7.1 km/h 14.8 km/h 70 % 0 mm
03:31 19.6 °C 13.9 °C 1013.4 hPa West 6.4 km/h 11.1 km/h 70 % 0 mm
03:36 19.6 °C 13.9 °C 1013.4 hPa WSW 3.7 km/h 7.4 km/h 70 % 0 mm
03:41 19.5 °C 13.9 °C 1013.4 hPa WNW 6 km/h 12.9 km/h 70 % 0 mm
03:46 19.5 °C 13.7 °C 1013.8 hPa West 5.6 km/h 18.5 km/h 69 % 0 mm
03:51 19.4 °C 13.8 °C 1013.8 hPa WNW 5.6 km/h 14.8 km/h 70 % 0 mm
03:56 19.4 °C 13.8 °C 1013.8 hPa SW 5.6 km/h 11.3 km/h 70 % 0 mm
04:01 19.4 °C 13.8 °C 1013.8 hPa WNW 4.8 km/h 13 km/h 70 % 0 mm
04:07 19.4 °C 13.8 °C 1013.8 hPa WSW 7.6 km/h 14.8 km/h 70 % 0 mm
04:12 19.3 °C 13.7 °C 1014.1 hPa SSW 11.7 km/h 20.4 km/h 70 % 0 mm
04:17 19.3 °C 13.7 °C 1014.1 hPa WSW 2.3 km/h 9.3 km/h 70 % 0 mm
04:22 19.3 °C 13.4 °C 1014.1 hPa West 7.2 km/h 14.8 km/h 69 % 0 mm
04:27 19.3 °C 13.4 °C 1014.1 hPa NNW 5.6 km/h 18.5 km/h 69 % 0 mm
04:32 19.3 °C 13.7 °C 1014.1 hPa NW 10.6 km/h 22.2 km/h 70 % 0 mm
04:37 19.2 °C 13.8 °C 1014.1 hPa WSW 12.1 km/h 16.7 km/h 71 % 0 mm
04:42 19.2 °C 14.1 °C 1014.1 hPa NW 12.7 km/h 16.7 km/h 72 % 0 mm
04:47 19.2 °C 14.2 °C 1014.1 hPa WNW 3.9 km/h 7.4 km/h 73 % 0 mm
04:52 19.1 °C 13.9 °C 1014.1 hPa WNW 5.5 km/h 16.7 km/h 72 % 0 mm
04:57 19 °C 13.8 °C 1014.1 hPa NNW 11.4 km/h 16.7 km/h 72 % 0 mm
05:02 18.9 °C 13.8 °C 1014.4 hPa West 1.9 km/h 5.6 km/h 72 % 0 mm
05:07 18.8 °C 13.4 °C 1014.4 hPa NW 11.4 km/h 16.7 km/h 71 % 0 mm
05:12 18.8 °C 13.9 °C 1014.4 hPa West 2.7 km/h 7.4 km/h 73 % 0 mm
05:17 18.8 °C 13.8 °C 1014.4 hPa NW 4 km/h 11.1 km/h 73 % 0 mm
05:22 18.7 °C 13.8 °C 1014.8 hPa NW 6 km/h 13 km/h 73 % 0 mm
05:28 18.7 °C 13.7 °C 1014.4 hPa West 2.1 km/h 5.6 km/h 73 % 0 mm
05:33 18.6 °C 13.8 °C 1014.4 hPa SW 3.1 km/h 11.3 km/h 74 % 0 mm
05:38 18.6 °C 13.6 °C 1014.8 hPa WNW 6.9 km/h 13 km/h 73 % 0 mm
05:43 18.5 °C 13.8 °C 1014.4 hPa WSW 8.7 km/h 13 km/h 74 % 0 mm
05:48 18.4 °C 13.5 °C 1014.8 hPa West 8.5 km/h 13 km/h 73 % 0 mm
05:53 18.5 °C 13.8 °C 1014.8 hPa West 6.9 km/h 16.7 km/h 74 % 0 mm
05:58 18.5 °C 13.8 °C 1015.1 hPa WNW 5.5 km/h 14.5 km/h 74 % 0 mm
06:03 18.5 °C 13.8 °C 1015.1 hPa WSW 1.6 km/h 9.3 km/h 74 % 0 mm
06:08 18.4 °C 13.5 °C 1014.8 hPa SW 6.4 km/h 6.4 km/h 73 % 0 mm
06:13 18.5 °C 13.6 °C 1014.8 hPa West 7.9 km/h 18.5 km/h 73 % 0 mm
06:18 18.5 °C 13.6 °C 1015.1 hPa WNW 5.1 km/h 14.8 km/h 73 % 0 mm
06:24 18.5 °C 13.6 °C 1015.1 hPa WNW 7.1 km/h 14.8 km/h 73 % 0 mm
06:29 18.5 °C 13.6 °C 1015.1 hPa WNW 8.4 km/h 13 km/h 73 % 0 mm
06:34 18.5 °C 13.8 °C 1015.1 hPa WNW 8.5 km/h 14.8 km/h 74 % 0 mm
06:39 18.6 °C 13.8 °C 1015.1 hPa West 5.5 km/h 11.1 km/h 74 % 0 mm
06:44 18.6 °C 13.6 °C 1015.1 hPa WNW 6.4 km/h 9.3 km/h 73 % 0 mm
06:49 18.6 °C 13.7 °C 1015.5 hPa WNW 4.2 km/h 13 km/h 73 % 0 mm
06:54 18.7 °C 13.9 °C 1015.5 hPa WNW 8.9 km/h 14.8 km/h 74 % 0 mm
06:59 18.7 °C 13.7 °C 1015.5 hPa NW 8 km/h 14.5 km/h 73 % 0 mm
07:04 18.7 °C 13.8 °C 1015.8 hPa NE 8 km/h 16.7 km/h 73 % 0 mm
07:09 18.8 °C 14.1 °C 1015.8 hPa West 6.9 km/h 11.1 km/h 74 % 0 mm
07:14 18.8 °C 14.1 °C 1015.8 hPa West 4.2 km/h 16.7 km/h 74 % 0 mm
07:19 18.9 °C 14 °C 1015.8 hPa WNW 8.5 km/h 18.5 km/h 73 % 0 mm
07:24 19.1 °C 14.1 °C 1015.8 hPa NW 5.5 km/h 24.1 km/h 73 % 0 mm
07:29 19.2 °C 14.2 °C 1015.8 hPa NW 4.5 km/h 14.8 km/h 73 % 0 mm
07:34 19.2 °C 14.1 °C 1015.8 hPa West 4.5 km/h 12.9 km/h 72 % 0 mm
07:39 19.3 °C 14.3 °C 1015.8 hPa WNW 5.3 km/h 13 km/h 73 % 0 mm
07:42 19.3 °C 14.3 °C 1016.1 hPa West 0.8 km/h 5.6 km/h 73 % 0 mm
07:47 19.3 °C 14.1 °C 1016.1 hPa WSW 8.7 km/h 16.7 km/h 72 % 0 mm
07:52 19.3 °C 14.1 °C 1016.1 hPa West 3.4 km/h 11.1 km/h 72 % 0 mm
07:57 19.3 °C 14.1 °C 1016.1 hPa North 5.3 km/h 13 km/h 72 % 0 mm
08:02 19.3 °C 14.1 °C 1016.1 hPa NW 6.1 km/h 14.8 km/h 72 % 0 mm
08:07 19.3 °C 14.2 °C 1016.5 hPa West 10.9 km/h 14.8 km/h 72 % 0 mm
08:12 19.3 °C 13.9 °C 1016.5 hPa West 4.5 km/h 5.6 km/h 71 % 0 mm
08:17 19.3 °C 13.9 °C 1016.5 hPa WNW 6.1 km/h 9.7 km/h 71 % 0 mm
08:22 19.3 °C 14.2 °C 1016.5 hPa WNW 3.1 km/h 11.1 km/h 72 % 0 mm
08:27 19.4 °C 14 °C 1016.5 hPa West 8.5 km/h 12.9 km/h 71 % 0 mm
08:32 19.4 °C 13.8 °C 1016.5 hPa WNW 3.1 km/h 7.4 km/h 70 % 0 mm
08:37 19.4 °C 13.8 °C 1016.5 hPa NNW 0.5 km/h 7.4 km/h 70 % 0 mm
08:43 19.5 °C 13.9 °C 1016.5 hPa WNW 5.3 km/h 9.3 km/h 70 % 0 mm
08:48 19.6 °C 13.9 °C 1016.5 hPa NW 2.7 km/h 7.4 km/h 70 % 0 mm
08:53 19.6 °C 14 °C 1016.8 hPa NW 3.4 km/h 11.1 km/h 70 % 0 mm
08:58 19.7 °C 14.1 °C 1016.8 hPa West 1.1 km/h 8 km/h 70 % 0 mm
09:03 19.8 °C 14.2 °C 1016.8 hPa NW 0.2 km/h 5.6 km/h 70 % 0 mm
09:08 19.9 °C 14.3 °C 1016.5 hPa WNW 5.1 km/h 9.3 km/h 70 % 0 mm
09:13 20 °C 13.9 °C 1016.8 hPa West 0.5 km/h 7.4 km/h 68 % 0 mm
09:18 20.2 °C 14.5 °C 1016.8 hPa NE 1.6 km/h 4.8 km/h 70 % 0 mm
09:23 20.3 °C 14.2 °C 1016.8 hPa NW 4.2 km/h 11.1 km/h 68 % 0 mm
09:28 20.4 °C 13.9 °C 1016.8 hPa WNW 5.6 km/h 11.1 km/h 66 % 0 mm
09:33 20.6 °C 14.4 °C 1016.8 hPa North 2.6 km/h 14.8 km/h 68 % 0 mm
09:38 20.7 °C 14.2 °C 1016.8 hPa WNW 4.3 km/h 5.6 km/h 66 % 0 mm
09:43 20.8 °C 14.2 °C 1016.8 hPa West 0.5 km/h 5.6 km/h 66 % 0 mm
09:49 21.1 °C 14.9 °C 1017.2 hPa North 0.6 km/h 3.7 km/h 68 % 0 mm
09:54 21.2 °C 14.8 °C 1017.2 hPa NW 0.8 km/h 3.7 km/h 67 % 0 mm
09:59 21.4 °C 14.8 °C 1017.2 hPa West 2.4 km/h 6.4 km/h 66 % 0 mm
10:04 21.6 °C 14.4 °C 1017.2 hPa NNW 4.3 km/h 9.3 km/h 64 % 0 mm
10:09 21.7 °C 14.1 °C 1017.2 hPa WNW 6.9 km/h 13 km/h 62 % 0 mm
10:19 22.3 °C 14.7 °C 1017.2 hPa NW 2.4 km/h 7.4 km/h 62 % 0 mm
10:24 22.6 °C 14.7 °C 1017.2 hPa WNW 6.8 km/h 14.8 km/h 61 % 0 mm
10:34 23.4 °C 15.2 °C 1017.2 hPa WNW 4.3 km/h 11.1 km/h 60 % 0 mm
10:39 23.7 °C 14.4 °C 1017.2 hPa NW 3.5 km/h 7.4 km/h 56 % 0 mm
10:44 23.7 °C 14.7 °C 1017.2 hPa West 4.2 km/h 9.7 km/h 57 % 0 mm
10:49 23.7 °C 14.7 °C 1017.2 hPa NW 2.7 km/h 8 km/h 57 % 0 mm
10:54 23.8 °C 14.7 °C 1017.2 hPa WNW 7.2 km/h 16.7 km/h 57 % 0 mm
10:59 23.8 °C 14.7 °C 1017.2 hPa WNW 3.9 km/h 11.1 km/h 57 % 0 mm
11:04 23.8 °C 14.5 °C 1017.2 hPa WNW 7.6 km/h 13 km/h 56 % 0 mm
11:14 24.2 °C 15.2 °C 1016.8 hPa NNE 5.1 km/h 6.4 km/h 57 % 0 mm
11:19 24.3 °C 15.3 °C 1017.2 hPa NW 4 km/h 14.8 km/h 57 % 0 mm
11:24 24.3 °C 15.8 °C 1017.2 hPa West 2.4 km/h 6.4 km/h 59 % 0 mm
11:29 24.3 °C 15 °C 1017.2 hPa NW 1.4 km/h 5.6 km/h 56 % 0 mm
11:34 24.3 °C 15.2 °C 1017.2 hPa NW 6.6 km/h 14.8 km/h 57 % 0 mm
11:39 24.3 °C 15.2 °C 1017.2 hPa NNW 8.7 km/h 16.7 km/h 57 % 0 mm
11:44 24.3 °C 14.9 °C 1017.2 hPa West 6 km/h 7.4 km/h 56 % 0 mm
11:49 24.3 °C 15.8 °C 1017.2 hPa WNW 2.1 km/h 6.4 km/h 59 % 0 mm
11:54 24.3 °C 15 °C 1016.8 hPa West 3.9 km/h 7.4 km/h 56 % 0 mm
11:59 24.5 °C 15.2 °C 1016.8 hPa WNW 2.3 km/h 9.7 km/h 56 % 0 mm
12:04 24.7 °C 15 °C 1016.8 hPa SW 3.4 km/h 9.3 km/h 55 % 0 mm
12:09 24.8 °C 15.7 °C 1016.8 hPa SSW 7.6 km/h 11.1 km/h 57 % 0 mm
12:14 24.9 °C 14.3 °C 1016.8 hPa NNW 3.1 km/h 5.6 km/h 52 % 0 mm
12:19 24.9 °C 15.6 °C 1016.8 hPa WSW 6.8 km/h 16.7 km/h 56 % 0 mm
12:29 25 °C 15.1 °C 1017.2 hPa WNW 6.6 km/h 11.3 km/h 54 % 0 mm
12:34 24.9 °C 14.7 °C 1017.2 hPa West 8.5 km/h 9.3 km/h 53 % 0 mm
12:45 24.9 °C 14.7 °C 1017.2 hPa NW 7.2 km/h 11.1 km/h 53 % 0 mm
12:50 25.2 °C 16.1 °C 1017.2 hPa West 2.9 km/h 5.6 km/h 57 % 0 mm
12:55 25.4 °C 15.4 °C 1017.2 hPa WSW 4 km/h 11.1 km/h 54 % 0 mm
13:00 25.5 °C 14.9 °C 1017.2 hPa West 6.6 km/h 14.8 km/h 52 % 0 mm
13:05 25.6 °C 14.7 °C 1016.8 hPa SW 10.3 km/h 16.7 km/h 51 % 0 mm
13:10 25.5 °C 14.9 °C 1016.8 hPa WSW 1.6 km/h 3.7 km/h 52 % 0 mm
13:15 25.4 °C 14.9 °C 1016.8 hPa SW 5.6 km/h 9.3 km/h 52 % 0 mm
13:20 25.3 °C 14.4 °C 1016.8 hPa West 5 km/h 13 km/h 51 % 0 mm
13:25 25.2 °C 14.3 °C 1017.2 hPa WNW 2.9 km/h 9.7 km/h 51 % 0 mm
13:30 25.1 °C 13.9 °C 1017.2 hPa WNW 8.7 km/h 14.8 km/h 50 % 0 mm
13:35 24.9 °C 14.7 °C 1017.2 hPa WNW 6.3 km/h 13 km/h 53 % 0 mm
13:40 24.9 °C 15.3 °C 1017.2 hPa WSW 6.1 km/h 7.4 km/h 55 % 0 mm
13:45 25 °C 15.3 °C 1017.2 hPa West 5 km/h 16.7 km/h 55 % 0 mm
13:50 25 °C 15.1 °C 1017.2 hPa SSW 4.5 km/h 11.1 km/h 54 % 0 mm
13:55 25.1 °C 14.8 °C 1017.2 hPa NW 5.6 km/h 11.1 km/h 53 % 0 mm
14:01 25.1 °C 14.8 °C 1017.2 hPa West 4.7 km/h 11.1 km/h 53 % 0 mm
14:11 25.4 °C 14.9 °C 1016.8 hPa WSW 4.2 km/h 13 km/h 52 % 0 mm
14:16 25.7 °C 15.7 °C 1016.8 hPa WSW 3.9 km/h 14.8 km/h 54 % 0 mm
14:21 25.7 °C 14.2 °C 1016.8 hPa SSW 5.1 km/h 11.1 km/h 49 % 0 mm
14:26 25.6 °C 15 °C 1016.8 hPa SW 6.6 km/h 11.1 km/h 52 % 0.25 mm
14:31 25.4 °C 14.9 °C 1016.8 hPa WSW 6 km/h 9.3 km/h 52 % 0.25 mm
14:36 25.3 °C 14.8 °C 1016.5 hPa WSW 8.9 km/h 14.8 km/h 52 % 0.25 mm
14:41 25.3 °C 15 °C 1016.5 hPa WNW 5.6 km/h 9.3 km/h 53 % 0.25 mm
14:46 25.2 °C 14.9 °C 1016.5 hPa West 6.3 km/h 11.1 km/h 53 % 0.25 mm
14:51 25.2 °C 15.5 °C 1016.5 hPa NNW 1.8 km/h 5.6 km/h 55 % 0.25 mm
14:56 25 °C 14.4 °C 1016.5 hPa West 4 km/h 16.7 km/h 52 % 0.25 mm
15:01 24.9 °C 14.1 °C 1016.8 hPa West 8.7 km/h 14.5 km/h 51 % 0.25 mm
15:06 24.7 °C 14.2 °C 1016.5 hPa West 5.5 km/h 8 km/h 52 % 0.25 mm
15:11 24.6 °C 14.4 °C 1016.5 hPa SW 5 km/h 8 km/h 53 % 0.25 mm
15:16 24.5 °C 14.6 °C 1016.5 hPa West 1.9 km/h 4.8 km/h 54 % 0.25 mm
15:22 24.4 °C 14.5 °C 1016.5 hPa WNW 2.4 km/h 7.4 km/h 54 % 0.25 mm
15:27 24.3 °C 14.4 °C 1016.5 hPa West 0.6 km/h 7.4 km/h 54 % 0 mm
15:32 24.3 °C 14.7 °C 1016.5 hPa SW 5.5 km/h 9.3 km/h 55 % 0 mm
15:37 24.4 °C 14.8 °C 1016.5 hPa SW 4 km/h 11.1 km/h 55 % 0 mm
15:42 24.4 °C 14.8 °C 1016.8 hPa West 2.9 km/h 5.6 km/h 55 % 0 mm
15:47 24.3 °C 14.4 °C 1016.5 hPa West 5.5 km/h 7.4 km/h 54 % 0 mm
15:52 24.3 °C 14.1 °C 1016.5 hPa West 4.3 km/h 7.4 km/h 53 % 0 mm
15:57 24.2 °C 14.6 °C 1016.5 hPa WNW 1.1 km/h 5.6 km/h 55 % 0 mm
16:02 24.2 °C 14.6 °C 1016.5 hPa WNW 5.1 km/h 8 km/h 55 % 0 mm
16:07 24.1 °C 14.5 °C 1016.5 hPa SW 5.8 km/h 13 km/h 55 % 0 mm
16:12 24.1 °C 14.4 °C 1016.5 hPa WNW 2.3 km/h 5.6 km/h 55 % 0 mm
16:17 24 °C 14.7 °C 1016.8 hPa WSW 4.8 km/h 9.3 km/h 56 % 0 mm
16:22 24.2 °C 16.2 °C 1016.8 hPa NNW 5.5 km/h 11.1 km/h 61 % 0 mm
16:27 24.3 °C 14.7 °C 1016.5 hPa West 4.8 km/h 7.4 km/h 55 % 0 mm
16:32 24.3 °C 15 °C 1016.8 hPa WNW 2.4 km/h 7.4 km/h 56 % 0 mm
16:37 24.4 °C 14.8 °C 1016.5 hPa NW 2.6 km/h 6.4 km/h 55 % 0 mm
16:42 24.5 °C 15.2 °C 1016.5 hPa WNW 3.5 km/h 6.4 km/h 56 % 0 mm
16:47 24.7 °C 14.7 °C 1016.8 hPa NW 5 km/h 8 km/h 54 % 0 mm
16:52 24.8 °C 14.3 °C 1016.8 hPa West 6.8 km/h 9.7 km/h 52 % 0 mm
16:57 25.1 °C 14.8 °C 1016.8 hPa West 1 km/h 9.3 km/h 53 % 0 mm
17:02 25.2 °C 14.7 °C 1016.8 hPa SW 3.7 km/h 5.6 km/h 52 % 0 mm
17:06 25.2 °C 14.1 °C 1016.5 hPa WNW 4.2 km/h 7.4 km/h 50 % 0 mm
17:11 25.2 °C 14.9 °C 1016.8 hPa West 3.9 km/h 5.6 km/h 53 % 0 mm
17:16 25.2 °C 14.4 °C 1016.8 hPa West 1.6 km/h 5.6 km/h 51 % 0 mm
17:22 25.2 °C 14.9 °C 1016.8 hPa West 3.1 km/h 11.1 km/h 53 % 0 mm
17:27 25.2 °C 15.2 °C 1016.8 hPa SW 8.9 km/h 11.3 km/h 54 % 0 mm
17:32 25 °C 14.8 °C 1016.8 hPa WSW 2.4 km/h 6.4 km/h 53 % 0 mm
17:37 24.9 °C 14.7 °C 1016.8 hPa SW 1.4 km/h 5.6 km/h 53 % 0 mm
17:41 24.9 °C 14.9 °C 1016.5 hPa SW 2.9 km/h 9.7 km/h 54 % 0 mm
17:46 24.8 °C 14.8 °C 1016.8 hPa WSW 4 km/h 6.4 km/h 54 % 0 mm
17:51 24.7 °C 14.4 °C 1016.8 hPa West 3.5 km/h 9.7 km/h 53 % 0 mm
17:57 24.6 °C 15.2 °C 1016.5 hPa SW 2.7 km/h 3.7 km/h 56 % 0 mm
18:02 24.4 °C 14.8 °C 1016.8 hPa WSW 5.5 km/h 6.4 km/h 55 % 0 mm
18:07 24.3 °C 14.7 °C 1016.5 hPa WSW 2.6 km/h 6.4 km/h 55 % 0 mm
18:12 24.2 °C 14.6 °C 1016.5 hPa WSW 2.7 km/h 13 km/h 55 % 0 mm
18:17 24.2 °C 14.6 °C 1016.8 hPa WNW 1.1 km/h 5.6 km/h 55 % 0 mm
18:22 24.1 °C 14.7 °C 1016.5 hPa SW 3.1 km/h 5.6 km/h 56 % 0 mm
18:27 24 °C 14.7 °C 1016.5 hPa WSW 4.3 km/h 7.4 km/h 56 % 0 mm
18:32 23.9 °C 14.6 °C 1016.5 hPa SW 3.4 km/h 5.6 km/h 56 % 0 mm
18:37 23.9 °C 14.8 °C 1016.8 hPa SW 3.7 km/h 7.4 km/h 57 % 0 mm
18:42 23.8 °C 14.7 °C 1016.8 hPa WSW 2.9 km/h 5.6 km/h 57 % 0 mm
18:52 23.7 °C 14.9 °C 1016.5 hPa West 0.2 km/h 3.7 km/h 58 % 0 mm
18:57 23.6 °C 14.9 °C 1016.8 hPa West 0.3 km/h 3.7 km/h 58 % 0 mm
19:02 23.6 °C 14.8 °C 1016.8 hPa WSW 0.6 km/h 3.7 km/h 58 % 0 mm
19:07 23.5 °C 14.8 °C 1016.8 hPa WSW 2.7 km/h 3.7 km/h 58 % 0 mm
19:12 23.4 °C 14.9 °C 1016.8 hPa Calm     59 % 0 mm
19:17 23.3 °C 14.9 °C 1016.8 hPa WSW 0.5 km/h 1.9 km/h 59 % 0 mm
19:22 23.3 °C 15.1 °C 1016.8 hPa Calm   4.8 km/h 60 % 0 mm
19:27 23.2 °C 14.9 °C 1016.8 hPa WSW 2.9 km/h 5.6 km/h 60 % 0 mm
19:32 23.1 °C 14.9 °C 1016.8 hPa Calm     60 % 0 mm
19:37 23 °C 15.3 °C 1016.8 hPa Calm     62 % 0 mm
19:42 22.9 °C 15.4 °C 1017.2 hPa WSW 0.2 km/h 1.9 km/h 63 % 0 mm
19:48 22.8 °C 15.4 °C 1017.2 hPa WSW 0.2 km/h 1.9 km/h 63 % 0 mm
19:53 22.6 °C 15.2 °C 1017.2 hPa Calm   1.9 km/h 63 % 0 mm
19:58 22.5 °C 15.3 °C 1017.2 hPa WSW 0.8 km/h 1.6 km/h 64 % 0 mm
20:08 22.2 °C 15.3 °C 1017.2 hPa Calm     65 % 0 mm
20:13 22.1 °C 15.2 °C 1017.2 hPa Calm     65 % 0 mm
20:18 22 °C 15.3 °C 1017.2 hPa Calm     66 % 0 mm
20:23 21.8 °C 15.2 °C 1017.2 hPa Calm     66 % 0 mm
20:28 21.7 °C 15.3 °C 1017.2 hPa Calm     67 % 0 mm
20:33 21.6 °C 15.2 °C 1017.2 hPa Calm     67 % 0 mm
20:38 21.5 °C 15.1 °C 1017.2 hPa Calm     67 % 0 mm
20:43 21.4 °C 15 °C 1017.2 hPa Calm     67 % 0 mm
20:48 21.3 °C 14.9 °C 1017.5 hPa Calm     67 % 0 mm
20:53 21.2 °C 15.3 °C 1017.5 hPa Calm     69 % 0 mm
20:58 21.1 °C 15.2 °C 1017.2 hPa Calm     69 % 0 mm
21:03 21 °C 15.3 °C 1017.2 hPa Calm     70 % 0 mm
21:09 20.8 °C 15.2 °C 1017.5 hPa Calm     70 % 0 mm
21:14 20.7 °C 15.1 °C 1017.5 hPa Calm     70 % 0 mm
21:19 20.6 °C 14.9 °C 1017.5 hPa Calm     70 % 0 mm
21:24 20.4 °C 14.8 °C 1017.5 hPa Calm     70 % 0 mm
21:29 20.3 °C 14.9 °C 1017.5 hPa Calm     71 % 0 mm
21:34 20.2 °C 14.8 °C 1017.5 hPa Calm     71 % 0 mm
21:39 20.1 °C 14.7 °C 1017.5 hPa Calm     71 % 0 mm
21:44 20 °C 14.6 °C 1017.5 hPa WSW 0.8 km/h 5.6 km/h 71 % 0 mm
21:49 19.9 °C 14.5 °C 1017.5 hPa Calm     71 % 0 mm
21:59 19.7 °C 14.3 °C 1017.8 hPa Calm   1.9 km/h 71 % 0 mm
22:04 19.7 °C 14.5 °C 1017.5 hPa Calm   1.9 km/h 72 % 0 mm
22:09 19.6 °C 14.6 °C 1017.5 hPa Calm   1.9 km/h 73 % 0 mm
22:14 19.5 °C 14.6 °C 1017.8 hPa Calm     73 % 0 mm
22:19 19.4 °C 14.5 °C 1017.8 hPa Calm     73 % 0 mm
22:24 19.4 °C 14.4 °C 1017.8 hPa Calm   1.6 km/h 73 % 0 mm
22:29 19.3 °C 14.3 °C 1017.8 hPa Calm     73 % 0 mm
22:34 19.2 °C 14.3 °C 1017.8 hPa Calm     73 % 0 mm
22:39 19.2 °C 14.2 °C 1017.8 hPa Calm     73 % 0 mm
22:44 19.1 °C 14.2 °C 1018.2 hPa Calm     73 % 0 mm
22:49 19.1 °C 14.1 °C 1017.8 hPa Calm     73 % 0 mm
22:54 19 °C 14.3 °C 1017.8 hPa Calm     74 % 0 mm
22:59 18.9 °C 14.2 °C 1017.8 hPa Calm     74 % 0 mm
23:04 18.9 °C 14.2 °C 1017.8 hPa Calm     74 % 0 mm
23:09 18.8 °C 14.3 °C 1017.8 hPa Calm     75 % 0 mm
23:15 18.8 °C 14.3 °C 1017.8 hPa West 1.4 km/h 5.6 km/h 75 % 0 mm
23:20 18.7 °C 14.2 °C 1017.8 hPa Calm   1.9 km/h 75 % 0 mm
23:23 18.7 °C 14.2 °C 1017.8 hPa SSW 0.2 km/h 5.6 km/h 75 % 0 mm
23:28 18.6 °C 14.1 °C 1017.8 hPa Calm     75 % 0 mm
23:33 18.6 °C 14.1 °C 1017.8 hPa Calm     75 % 0 mm
23:38 18.5 °C 14 °C 1018.2 hPa Calm     75 % 0 mm
23:43 18.5 °C 14 °C 1018.2 hPa Calm     75 % 0 mm
23:48 18.4 °C 13.9 °C 1018.2 hPa Calm     75 % 0 mm
23:53 18.4 °C 14.1 °C 1018.2 hPa Calm     76 % 0 mm
23:58 18.4 °C 14.1 °C 1018.2 hPa SSW 0.8 km/h 3.7 km/h 76 % 0 mm
Crab Meadow Weather
Compliments of Weather Underground - 3 mb

Script developed by  Jim McMurry - jmcmurry@mwt.net Adapted for the template by  Wim van der Kuil - Leuven-Template.eu

Weather Terms: Downburst - A strong downdraft from a thunderstorm resulting in an outward burst of damaging winds on or near the ground. Downburst winds are often 50 to 100 mph and in a few cases, 100 to 150 mph. They can do as much damage as a small tornado.